Regional Weather Roundup
Issued by NWS Huntsville, AL

Home | Current Version | Previous Version | Text Only | Print | Product List | Glossary On
Versions: 1 2 3 4 5 6 7 8 9 10 11 12 13 14 15 16 17 18 19 20 21 22 23 24 25 26 27 28 29 30 31 32 33 34 35 36 37 38 39 40 41 42 43 44 45 46 47 48 49 50
000
ASUS44 KHUN 280210
RWRHUN

WEATHER ROUNDUP FOR THE TENNESSEE VALLEY
NATIONAL WEATHER SERVICE HUNTSVILLE AL
800 PM CST FRI FEB 27 2015

ALZ001>004-280300-
NORTHWEST ALABAMA

CITY           SKY/WX    TMP DP  RH WIND       PRES   REMARKS
COURTLAND HCN    N/A     32 N/A N/A N3          N/A
RUSSELLVILLE     N/A     30 N/A N/A MISG        N/A
SHOALS AIRPORT PTCLDY    34  12  40 N10G18    30.53R WCI  26
SHOALS TVA RES   N/A     34 N/A N/A MISG        N/A
$$

ALZ005>007-016-280300-
NORTH CENTRAL ALABAMA

CITY           SKY/WX    TMP DP  RH WIND       PRES   REMARKS
CULLMAN AG STN   N/A     30 N/A N/A N3          N/A
DECATUR AP     CLEAR     30  15  53 N12       30.52R WCI  20
HUNTSVILLE AP  CLEAR     32  15  49 N10       30.50R WCI  24
HUN NWS/UAH      N/A     31  12  46 VRB9        N/A  WCI  23
MERIDIANVILLE  CLEAR     32  12  43 N9        30.50R WCI  24
REDSTONE ARSN  PTCLDY    30  16  54 N13       30.50R WCI  20
VINEMONT AP    FAIR      29  16  56 N3        30.49R
$$

ALZ008>010-280300-
NORTHEAST ALABAMA

CITY           SKY/WX    TMP DP  RH WIND       PRES   REMARKS
ALBERTVILLE    PTCLDY    32  25  74 N7        30.43R WCI  26
FORT PAYNE     CLEAR     30  19  64 NE3       30.45R
SCOTTSBORO AP  CLEAR     32  16  51 N5        30.49R WCI  27
SCOTTSBORO HCN   N/A     30 N/A N/A MISG        N/A
VALLEY HEAD      N/A     30 N/A N/A MISG        N/A
$$

TNZ076-096-097-280300-
SOUTHEASTERN MIDDLE TENNESSEE

CITY           SKY/WX    TMP DP  RH WIND       PRES   REMARKS
TULLAHOMA      CLEAR     25  10  54 N9        30.51R WCI  15
WINCHESTER     CLEAR     27  12  54 N12       30.50R WCI  16
$$

...SURROUNDING SITES...

CITY           SKY/WX    TMP DP  RH WIND       PRES   REMARKS
ATLANTA        PTCLDY    37  21  52 N10       30.40S WCI  30
ANNISTON       CLEAR     35  23  61 CALM      30.44R
BIRMINGHAM     CLEAR     32  20  61 N3        30.47R
CHATTANOOGA    CLEAR     33  14  45 N8        30.49R WCI  26
CORINTH        CLOUDY    34   9  35 N9        30.54R WCI  26
DALTON         CLEAR     32  21  64 N7        30.46S WCI  26
GADSDEN        CLEAR     34  18  51 CALM      30.44R
GOLDEN TRNGL   MOCLDY    37  19  48 NE12      30.48R WCI  30
HALEYVILLE       N/A     27  18  69 CALM      30.51R
JACKSON TN     CLOUDY    28  13  53 NE10      30.57R WCI  19
LEWISBURG      FAIR      26   8  46 N8        30.55R WCI  18
MEMPHIS        CLOUDY    28  14  55 NE13      30.55S WCI  17
MURFREESBORO   FAIR      26   8  46 N10       30.58R WCI  16
NASHVILLE      CLOUDY    26   7  44 NE13      30.59R WCI  15
OXFORD MS      FAIR      30  16  55 NE10      30.53F WCI  21
ROME           CLEAR     33  17  51 N5        30.45R WCI  29
SAVANNAH       PTCLDY    30  10  43 NE8       30.55R WCI  23
TUPELO         CLOUDY    34  16  47 NE13      30.53R WCI  25
TUSCALOOSA     CLEAR     37  20  50 N12       30.49R WCI  29
$$

...GULF COAST WEATHER...

CITY           SKY/WX    TMP DP  RH WIND       PRES   REMARKS
GULFPORT       CLEAR     47  31  53 N9        30.36R
PASCAGOULA     PTCLDY    46  32  58 N10       30.36R
MOBILE         CLEAR     44  31  60 N12       30.37R
GULF SHORES    PTCLDY    47  33  57 N5        30.34R
PENSACOLA      MOCLDY    49  33  54 N8        30.34R
DESTIN         MOCLDY    51  38  60 N6        30.33R
PANAMA CITY    MOCLDY    50  40  67 E6        30.33R
APPALACHICOLA  CLOUDY    52  40  63 NE9       30.31R
$$



USA.gov is the U.S. government's official web portal to all federal, state and local government web resources and services.